Pratica di Mare, Italy

9:43 PM CET on January 19, 2018 (GMT +0100)
Pratica Di Mare Mil

Weather History for LIRE - October, 2012

Change the Weather History Date:

Wednesday, October 31, 2012

  Actual Average Record
Temperature  
Mean Temperature 60 °F -  
Max Temperature 66 °F 63 °F 73 °F (2004)
Min Temperature 55 °F 47 °F 50 °F (1996)
Degree Days  
Heating Degree Days 4    
Growing Degree Days 10 (Base 50)    
Moisture  
Dew Point 54 °F    
Average Humidity 82    
Maximum Humidity 88    
Minimum Humidity 63    
Precipitation  
Precipitation 1.61 in 0.16 in - ()
Sea Level Pressure  
Sea Level Pressure 29.51 in    
Wind  
Wind Speed 17 mph ()    
Max Wind Speed 30 mph    
Max Gust Speed 48 mph    
Visibility 3.9 miles    
Events Rain    
Averages and records for this station are not official NWS values.
T = Trace of Precipitation, MM = Missing Value Source: Averaged Metar Reports

Daily Weather History Graph

Daily Weather History Graph

Search for Another Location

Airport or City:

Trip Planner

Search our weather history database for the weather conditions in past years. The results will help you decide how hot, cold, wet, or windy it might be!

Date:

Astronomy

Oct. 31, 2012 Rise Set
Actual Time 6:41 AM CET 5:05 PM CET
Civil Twilight 6:12 AM CET 5:34 PM CET
Nautical Twilight 5:39 AM CET 6:07 PM CET
Astronomical Twilight 5:07 AM CET 6:39 PM CET
Moon 6:03 PM CET (10/31) 8:08 AM CET (10/31)
Length of Visible Light 11h 22m
Length of Day
10h 24m
Full, 98% of the Moon is Illuminated
Oct 31
Full
Nov 7
Last Quarter
Nov 13
New
Nov 20
First Quarter
Nov 28
Full

Hourly Weather History & Observations

Time (CET) Temp. Dew Point Humidity Pressure Visibility Wind Dir Wind Speed Gust Speed Precip Events Conditions
12:55 AM 57.2 °F 48.2 °F 72% 29.77 in 6.2 mi ESE 11.5 mph - N/A   Mostly Cloudy
1:00 AM 56 °F 49 °F 71% 29.78 in 6 mi ESE 11.5 mph - -   Partly Cloudy
1:55 AM 55.4 °F 48.2 °F 77% 29.77 in 6.2 mi ESE 12.7 mph - N/A   Mostly Cloudy
2:55 AM 55.4 °F 46.4 °F 72% 29.74 in 6.2 mi ESE 13.8 mph - N/A   Mostly Cloudy
3:55 AM 55.4 °F 46.4 °F 72% 29.71 in 6.2 mi ESE 15.0 mph - N/A   Mostly Cloudy
4:00 AM 56 °F 47 °F 63% 29.73 in 6 mi ESE 15.0 mph - -   Overcast
4:55 AM 57.2 °F 50.0 °F 77% 29.71 in 5.0 mi East 13.8 mph - N/A Rain Light Rain
5:55 AM 57.2 °F 50.0 °F 77% 29.68 in 5.0 mi East 15.0 mph - N/A Rain Light Rain
6:55 AM 57.2 °F 51.8 °F 82% 29.68 in 3.7 mi East 15.0 mph - N/A Rain Light Rain
7:00 AM 56 °F 53 °F 85% 29.68 in 4 mi East 15.0 mph - - Rain Light Rain
7:55 AM 57.2 °F 51.8 °F 82% 29.65 in 3.7 mi East 13.8 mph - N/A Rain Light Rain
8:55 AM 57.2 °F 51.8 °F 82% 29.62 in 4.3 mi East 16.1 mph - N/A Rain Light Rain
10:00 AM 58 °F 52 °F 73% 29.61 in 5 mi ESE 20.7 mph - - Rain Light Rain
10:55 AM 59.0 °F 53.6 °F 82% 29.56 in 5.0 mi ESE 24.2 mph - N/A Rain Light Rain
11:55 AM 57.2 °F 53.6 °F 88% 29.53 in 4.3 mi ESE 21.9 mph - N/A Rain Light Rain
12:55 PM 57.2 °F 53.6 °F 88% 29.50 in 3.1 mi ESE 27.6 mph - N/A Rain Rain
1:00 PM 57 °F 54 °F 86% 29.52 in 3 mi ESE 27.6 mph - - Rain Rain
1:21 PM 57.2 °F 53.6 °F 88% 29.47 in 1.9 mi ESE 25.3 mph 39.1 mph N/A Rain Rain
1:55 PM 57.2 °F 53.6 °F 88% 29.44 in 1.9 mi ESE 26.5 mph - N/A Rain Rain
2:25 PM 57.2 °F 53.6 °F 88% 29.44 in 1.2 mi ESE 24.2 mph - N/A Rain Rain
2:41 PM 57.2 °F 53.6 °F 88% 29.44 in 1.9 mi ESE 23.0 mph - N/A Rain Rain
2:55 PM 57.2 °F 53.6 °F 88% 29.44 in 2.5 mi ESE 20.7 mph - N/A Rain Rain
3:20 PM 57.2 °F 53.6 °F 88% 29.42 in 1.9 mi ESE 23.0 mph - N/A Rain Rain
3:55 PM 57.2 °F 53.6 °F 88% 29.42 in 2.5 mi ESE 23.0 mph - N/A Rain Rain
4:00 PM 57 °F 53 °F 84% 29.42 in 2 mi ESE 23.0 mph - - Rain Rain
4:12 PM 57.2 °F 53.6 °F 88% 29.39 in 0.9 mi ESE 21.9 mph - N/A Rain Heavy Rain
4:55 PM 57.2 °F 53.6 °F 88% 29.39 in 2.5 mi SE 17.3 mph 34.5 mph N/A Rain Heavy Rain
5:07 PM 59.0 °F 55.4 °F 88% 29.36 in 3.1 mi SE 19.6 mph - N/A Rain Rain
5:55 PM 62.6 °F 57.2 °F 82% 29.36 in 1.2 mi SE 29.9 mph 48.3 mph N/A Rain Heavy Rain
6:14 PM 62.6 °F 57.2 °F 82% 29.39 in 3.1 mi SSE 24.2 mph - N/A Rain Rain
6:55 PM 62.6 °F 59.0 °F 88% 29.36 in 2.5 mi South 29.9 mph 42.6 mph N/A Rain Rain
7:00 PM 62 °F 58 °F 84% 29.36 in 2 mi South 29.9 mph - - Rain Rain
7:55 PM 64.4 °F 59.0 °F 83% 29.33 in 3.7 mi South 27.6 mph - N/A Rain Light Rain
8:55 PM 66.2 °F 60.8 °F 83% 29.33 in 5.0 mi South 26.5 mph - N/A Rain Light Rain
9:55 PM 66.2 °F 60.8 °F 83% 29.33 in 6.2 mi South 23.0 mph - N/A Rain Light Rain
10:00 PM 65 °F 61 °F 83% 29.34 in 6 mi South 23.0 mph - - Rain Light Rain
10:55 PM 66.2 °F 59.0 °F 78% 29.33 in 6.2 mi South 20.7 mph - N/A   Scattered Clouds
11:55 PM 66.2 °F 59.0 °F 78% 29.33 in 6.2 mi South 20.7 mph - N/A   Scattered Clouds